Vorticity
nan nan nan nan nan nan nan nan nan nan nan nan nan nan nan nan nan nan nan nan nan nan nan nan nan nan nan nan nan nan nan nan nan nan nan nan nan nan nan nan nan nan nan nan
nan 13 9 4 5 4 11 9 11 6 4 10 3 11 12 15 13 14 10 7 8 8 7 8 10 8 8 6 7 7 8 7 6 4 7 8 9 8 8 9 10 9 8 nan
nan 13 10 7 6 3 5 7 4 3 7 12 10 16 5 8 15 19 15 11 10 9 8 9 8 6 7 10 5 7 9 7 5 5 6 6 6 8 9 8 10 10 9 nan
nan 2 1 4 4 11 9 1 6 12 10 2 15 10 10 6 13 16 18 14 11 11 10 9 9 8 6 6 8 11 9 8 6 7 4 6 4 7 6 8 10 10 11 nan
nan 7 4 3 8 7 5 4 10 16 10 4 12 2 9 9 6 6 10 12 14 16 16 12 11 10 7 5 7 10 9 7 8 7 6 6 5 5 7 9 8 9 9 nan
nan 9 17 12 7 6 2 9 7 5 10 12 4 13 6 5 4 7 7 9 10 15 20 17 15 12 10 7 6 8 9 8 9 7 8 5 6 5 7 7 7 9 9 nan
nan 2 6 15 3 5 6 4 6 9 5 10 9 6 8 9 7 7 7 8 11 15 19 18 15 12 12 10 7 5 8 10 9 8 8 9 6 8 7 7 6 8 10 nan
nan 9 10 3 5 9 12 2 6 7 9 7 8 8 1 6 9 7 5 5 8 11 15 17 14 13 13 10 10 7 8 11 10 8 8 8 7 7 10 7 7 10 7 nan
nan 2 11 16 12 10 6 7 6 9 8 5 11 10 6 8 6 6 8 5 5 9 12 17 15 12 12 12 11 8 7 9 11 8 8 9 9 7 7 9 8 6 7 nan
nan 12 12 9 7 7 6 14 11 5 6 13 5 6 19 18 13 10 7 4 6 11 16 17 16 13 11 11 12 13 7 6 7 10 9 9 10 9 8 9 7 7 9 nan
nan 10 9 9 17 7 8 3 -4 6 12 9 8 11 11 14 17 13 5 4 8 14 18 18 16 14 13 12 11 12 11 10 7 8 9 9 9 9 9 8 8 8 8 nan
nan 8 9 7 3 15 17 10 2 6 3 -1 4 9 12 14 14 10 6 8 11 14 14 15 16 14 13 12 11 11 12 11 9 10 10 9 9 11 9 8 9 9 10 nan
nan 2 9 11 2 8 11 8 10 9 7 8 10 2 10 13 9 8 8 8 10 10 11 13 12 12 12 11 11 10 9 11 12 11 10 10 10 8 7 10 10 9 10 nan
nan 5 7 6 11 12 10 7 9 6 7 6 8 4 14 9 9 9 7 8 10 9 10 10 8 10 13 13 12 10 10 11 10 11 11 11 10 10 12 11 10 11 12 nan
nan 10 8 2 9 12 18 15 12 7 1 6 14 10 6 13 9 8 9 9 8 8 9 8 10 12 12 12 13 16 15 11 12 11 9 11 10 13 12 12 12 13 15 nan
nan 9 13 12 5 7 8 12 15 13 9 6 9 17 9 14 13 8 9 9 8 7 7 9 6 5 9 9 13 15 21 19 14 11 11 12 13 11 11 12 14 16 15 nan
nan 9 14 13 14 8 15 14 9 11 14 16 15 15 16 9 8 9 8 8 7 7 7 10 10 7 5 7 7 12 19 18 16 13 13 14 13 11 11 12 13 17 11 nan
nan 11 8 15 13 9 9 16 17 14 12 12 19 18 11 8 8 9 10 10 7 7 7 7 7 10 7 12 9 11 10 10 12 13 12 12 13 14 14 12 12 14 13 nan
nan 12 6 15 2 7 11 18 16 12 5 12 13 10 8 4 0 3 7 9 9 8 8 7 7 9 9 8 8 10 8 9 8 8 9 10 12 13 13 13 13 13 12 nan
nan 11 12 8 10 9 11 9 7 14 16 17 15 10 8 -1 -3 6 8 6 5 6 8 7 7 7 7 6 9 9 8 7 6 7 8 9 12 12 13 12 14 16 13 nan
nan 12 13 9 8 6 8 7 14 14 17 23 15 9 4 4 15 14 5 5 5 5 5 7 8 6 6 7 9 9 8 6 7 8 9 10 10 12 14 13 14 15 13 nan
nan 9 14 12 16 1 8 15 11 21 22 19 9 7 13 16 9 6 5 4 5 6 6 9 10 7 7 9 10 9 8 6 8 10 10 9 10 12 10 12 15 14 12 nan
nan 8 13 11 20 18 17 17 20 17 16 14 12 13 11 8 4 5 6 6 6 8 9 9 9 10 10 10 10 10 10 10 10 11 10 9 10 11 10 11 12 13 14 nan
nan 12 19 17 7 15 14 15 13 13 12 12 12 10 9 8 6 6 6 8 8 9 10 11 10 10 8 9 11 10 9 12 12 11 12 12 11 9 11 12 12 11 10 nan
nan 19 4 12 11 6 10 10 10 9 8 7 8 11 11 8 8 8 8 9 9 9 10 10 10 9 9 8 9 10 9 10 13 12 13 14 12 9 12 11 9 12 10 nan
nan nan nan nan nan nan nan nan nan nan nan nan nan nan nan nan nan nan nan nan nan nan nan nan nan nan nan nan nan nan nan nan nan nan nan nan nan nan nan nan nan nan nan nan
CAPE
212 530 773 704 507 443 337 550 624 749 848 923 609 699 822 1329 1422 1621 1874 1714 1585 1578 1680 1617 1661 1491 1579 1877 2010 2140 1905 2057 2018 1897 1736 904 736 618 335 520 503 376 275 1551
272 517 467 340 227 159 255 572 808 790 736 877 836 694 416 898 1279 1429 1690 1770 1823 1746 1590 1739 1830 1761 1562 1744 1999 2140 2111 2462 2502 2207 2046 1226 1110 1295 1576 1608 845 695 485 1461
327 410 211 259 327 312 211 196 80 44 61 723 448 495 360 452 751 945 1429 1637 1663 1734 1759 1736 1846 1878 1908 1854 2028 2173 2410 2481 2747 2461 2287 1900 1704 1877 2044 1998 1990 1525 914 1371
162 230 118 219 344 227 319 0 0 3 261 633 463 525 317 575 870 1378 1631 1652 1677 1672 1690 1731 1741 1871 1926 1384 1555 2243 2502 2572 2702 2796 2436 2416 1951 1805 1795 2028 1876 1157 1059 1667
120 270 356 396 426 46 85 0 65 543 443 305 285 453 432 482 467 564 554 430 446 817 1496 1623 1761 1851 1850 1806 1929 2158 2288 2548 2579 2758 2788 2531 2475 1963 2022 2178 2062 2050 1515 1806
22 3 138 431 47 0 0 41 229 657 625 420 263 431 451 326 413 493 471 371 193 588 551 694 1600 1817 1938 1922 1926 1820 2176 2527 2597 2684 2821 2859 2700 2550 2122 2266 2285 2146 1760 1635
0 2 2 0 54 8 57 261 236 520 616 607 379 288 425 356 478 457 455 194 163 250 827 881 1360 1771 1949 2095 2135 2092 1581 2034 2529 2690 2744 2846 2917 2874 2715 2679 2408 2202 1780 1592
0 0 3 6 33 212 342 422 253 298 535 507 515 250 433 279 539 507 450 204 129 110 230 1157 1454 1784 2008 2137 2295 2177 1972 2178 2504 2717 2914 2960 3002 2829 2693 2533 2407 2152 1901 1725
0 0 0 0 0 33 105 251 225 128 308 185 357 195 80 337 607 449 399 262 192 240 260 396 1551 1839 2037 2191 2322 2379 2492 2315 2470 2656 3011 3007 3025 2912 2587 2629 2583 2507 2404 1917
0 0 0 0 0 0 21 194 192 157 126 275 307 186 120 212 274 406 328 257 222 441 363 337 1063 1720 2013 2112 2236 2301 2442 2463 2393 2481 2777 2875 2888 2995 2921 2878 2977 2715 2377 2525
0 0 0 0 0 0 1 87 117 172 204 286 286 244 54 318 418 425 328 188 775 855 738 484 636 1618 2027 2191 2270 2424 2478 2597 2636 2722 2735 2841 2795 2774 3078 2969 3065 3177 2901 2651
0 0 0 0 0 0 0 20 161 218 212 186 217 323 320 416 513 538 355 1132 1516 1488 1499 1578 1252 1785 2076 2228 2305 2440 2584 2575 2687 2770 3047 2916 2987 2898 2788 3194 3081 3160 3217 3017
0 0 0 0 0 0 0 0 61 71 103 230 291 287 527 659 620 586 1182 1808 2246 2324 1755 1698 1925 2193 2268 2420 2506 2510 2626 2695 2603 2872 2884 3076 3077 3054 3010 2891 3271 3269 3301 3370
0 0 0 0 0 0 0 0 0 40 102 108 224 309 623 603 638 1452 1782 2235 2551 2848 3013 2866 2763 2628 2549 2642 2772 2805 2706 2634 2897 2770 2921 3077 3109 2993 2917 3058 3300 3349 3401 3355
0 0 0 0 0 0 0 0 0 0 2 70 83 175 415 633 1305 1852 2144 2442 2580 2590 2544 2787 3200 3582 3722 3928 3584 3112 2880 2891 2925 3163 3008 3090 3265 3227 3332 3350 3395 3392 3495 1024
0 0 0 0 0 0 0 0 0 0 0 3 45 189 397 1279 1887 1974 2160 2147 2009 1813 1752 1839 1839 1933 2246 3261 3636 3070 2856 2849 2997 3161 3189 3229 3425 3793 3823 3778 3658 3594 2916 1110
0 0 0 0 0 0 0 0 0 0 0 15 37 494 1426 1595 1409 1491 1668 1660 1486 1296 1112 1172 1024 1107 1288 1195 1692 3092 3618 3369 3384 3505 3576 3703 3846 4093 4212 4142 4073 3768 1965 1261
0 0 0 0 0 0 22 27 2 0 88 141 560 1399 1370 1003 676 608 684 694 511 377 378 493 693 503 644 775 1184 1274 1421 2392 3748 4505 4542 4499 4266 4320 4451 4428 4331 4160 1649 897
0 0 0 0 0 161 186 291 261 226 371 438 876 1197 587 299 190 101 70 83 67 59 33 7 6 0 13 115 282 803 1057 1249 1192 1237 2079 3728 4446 4424 4448 4507 4522 4222 2182 1128
0 0 7 18 24 29 76 342 123 460 623 638 1113 646 369 351 711 107 10 0 0 0 0 0 0 0 0 0 37 171 293 422 725 1059 1071 1500 2584 4090 4509 4469 4525 4213 2705 1653
1 18 36 102 97 386 304 37 114 668 503 911 1043 509 481 592 470 15 0 0 0 0 0 0 0 0 0 0 10 75 104 155 179 347 771 1068 1244 1761 3343 4383 4467 4049 2786 1936
121 152 106 165 186 269 4 54 523 317 740 931 705 494 221 37 1 0 0 0 0 0 0 0 0 0 0 0 0 0 9 0 7 78 203 442 910 890 1083 2553 3690 3660 3462 3120
287 318 454 262 340 3 0 70 80 267 314 234 140 67 31 3 0 0 0 0 0 0 0 0 0 0 0 0 0 0 0 1 0 0 1 27 167 586 803 1168 1791 2281 3034 2974
22 45 257 245 24 10 0 0 28 82 83 52 18 1 0 0 0 0 0 0 0 0 0 0 0 0 0 0 1 2 3 7 2 0 0 0 0 0 155 511 404 670 827 1490
105 144 189 108 5 0 0 0 0 0 0 0 0 0 0 0 0 0 0 0 0 0 0 0 0 0 1 2 2 2 8 5 1 1 0 0 0 0 0 73 163 408 475 298
11 152 224 172 19 68 5 3 0 0 0 0 0 0 0 0 0 0 0 0 0 0 0 0 0 1 6 3 8 15 8 11 11 7 3 2 0 0 0 1 0 2 69 34